Regional Weather Roundup
Issued by NWS Cleveland, OH

Home | Current Version | Previous Version | Graphics & Text | Print | Product List | Glossary On
Versions: 1 2 3 4 5 6 7 8 9 10 11 12 13 14 15 16 17 18 19 20 21 22 23 24 25 26 27 28 29 30 31 32 33 34 35 36 37 38 39 40 41 42 43 44 45 46 47 48 49 50
000
ASUS41 KCLE 270700
RWRCLE
OHIO REGIONAL WEATHER ROUNDUP
NATIONAL WEATHER SERVICE WILMINGTON, OH
300 AM EDT SAT AUG 27 2016

NOTE: "FAIR" INDICATES FEW OR NO CLOUDS BELOW 12,000 FEET WITH NO
SIGNIFICANT WEATHER AND/OR OBSTRUCTIONS TO VISIBILITY.

OHZ001>008-015>018-024>027-034-035-043-044-270800-
   NORTHWEST OHIO

CITY           SKY/WX    TMP DP  RH WIND       PRES   REMARKS
DEFIANCE       MOCLDY    72  65  78 CALM      30.14S
FINDLAY        MOCLDY    73  59  61 E5        30.13S
TOLEDO EXPRESS FAIR      66  66 100 CALM      30.14R
TOLEDO EXEC    FAIR      70  65  84 CALM      30.15R
LIMA           FAIR      69  66  90 E5        30.14S
$$

OHZ009>014-019>023-028>033-038-089-270800-
   NORTHEAST OHIO

CITY           SKY/WX    TMP DP  RH WIND       PRES   REMARKS
CLE-HOPKINS    FAIR      68  58  70 SE3       30.18
CLE-LAKEFRONT  FAIR      71  59  65 SE6       30.14S
CUY CO. ARPT   NOT AVBL
LORAIN-ELYRIA  FAIR      63  58  83 CALM      30.16F
ASHTABULA      FAIR      59  59 100 CALM      30.18S
AKRON-CANTON   FAIR      68  60  75 NE6       30.18R
WOOSTER        NOT AVBL
MANSFIELD      FAIR      69  57  65 SE7       30.17S
YOUNGSTOWN     FAIR      63  59  87 E6        30.17F
$$

OHZ042-051>053-060>062-070>072-077>081-270800-
  SOUTHWEST OHIO

CITY           SKY/WX    TMP DP  RH WIND       PRES   REMARKS
CINC-COVINGTON CLOUDY    72  71  97 CALM      30.11S
CINC-LUNKEN    FAIR      73  73 100 CALM      30.10S FOG
HAMILTON       FAIR      70  68  93 CALM      30.11F
DAYTON         NOT AVBL
WRIGHT-PAT AFB FAIR      72  72 100 N2        30.12S
DAYTON GENERAL FAIR      74  69  85 E7        30.11F
WILMINGTON     FAIR      73  70  90 E6        30.12F
$$

OHZ036-037-039>041-045>050-054>059-063>069-073>076-082>088-270800-
  CENTRAL AND SOUTHEAST OHIO

CITY           SKY/WX    TMP DP  RH WIND       PRES   REMARKS
COLUMBUS       FAIR      73  63  70 E5        30.12
OSU AIRPORT    FAIR      71  66  84 N5        30.13S
BOLTON FIELD   NOT AVBL
RICKENBACK AFB NOT AVBL
NEWARK         FAIR      68  67  96 CALM      30.14S
MARION         FAIR      68  61  78 NE3       30.15S
LANCASTER      FAIR      70  69  97 CALM      30.14S
ZANESVILLE     FAIR      70  69  97 CALM      30.14S
NEW PHILLY     FAIR      67  62  84 CALM      30.16S
$$




USA.gov is the U.S. government's official web portal to all federal, state and local government web resources and services.